DW1973 Weather Reports


Display with metric or nautical units.
time (UTC)temp
F
wind
direction
speed
MPH
gust
MPH
rain 1hr
in
rain 24hr
in
rain mn
in
humidity
%
barometer
mb
20260504081919 51 19 3.0 5.0 0.00 0.01 0.00 79 1004.2
20260504081428 51 17 3.0 4.0 0.00 0.01 0.00 79 1004.2
20260504080934 51 17 3.0 4.0 0.00 0.01 0.00 79 1004.3
20260504080437 52 15 0.0 3.0 0.00 0.01 0.00 78 1004.2
20260504050415 59 15 3.0 8.0 0.00 0.01 0.01 67 1005.8
20260504045947 59 14 3.0 9.0 0.00 0.01 0.01 67 1005.8
20260504045416 59 14 4.0 9.0 0.00 0.01 0.01 67 1005.8
20260504044951 59 14 4.0 8.0 0.00 0.01 0.01 67 1005.8
20260504044421 59 14 4.0 8.0 0.00 0.01 0.01 67 1005.8
20260504043930 59 14 4.0 9.0 0.00 0.01 0.01 67 1005.9
20260504043420 59 13 5.0 9.0 0.00 0.01 0.01 67 1005.8
20260504042933 59 13 4.0 10.0 0.00 0.01 0.01 67 1005.8
20260504042442 58 14 4.0 8.0 0.00 0.01 0.01 68 1005.8
20260504041950 58 13 4.0 8.0 0.00 0.01 0.01 67 1005.9
20260504041438 58 13 4.0 9.0 0.00 0.01 0.01 67 1005.7
20260504040948 59 13 5.0 11.0 0.00 0.01 0.01 67 1005.8
20260504040415 59 13 4.0 11.0 0.00 0.01 0.01 67 1005.8
20260504035946 58 13 4.0 7.0 0.00 0.01 0.01 67 1005.8
20260504035414 59 14 2.0 5.0 0.00 0.01 0.01 67 1005.8
20260504034951 59 15 3.0 6.0 0.00 0.01 0.01 67 1005.8
20260504034423 59 13 3.0 7.0 0.00 0.01 0.01 66 1006.0
20260504033933 59 14 3.0 6.0 0.00 0.01 0.01 66 1006.0
20260504033423 59 14 3.0 6.0 0.00 0.01 0.01 65 1006.1
20260504032932 59 14 3.0 6.0 0.00 0.01 0.01 65 1006.2
20260504032419 59 15 3.0 5.0 0.00 0.01 0.01 65 1006.2
20260504031953 59 15 2.0 6.0 0.00 0.01 0.01 64 1006.3
20260504031419 60 15 3.0 6.0 0.00 0.01 0.01 64 1006.2
20260504030956 60 17 3.0 5.0 0.00 0.01 0.01 63 1006.3
20260504030443 60 15 3.0 5.0 0.00 0.01 0.01 63 1006.4
20260504025926 60 15 3.0 5.0 0.00 0.01 0.01 63 1006.4
20260504025417 60 19 2.0 5.0 0.00 0.01 0.01 63 1006.3
20260504024927 60 17 3.0 5.0 0.00 0.01 0.01 62 1006.4
20260504024419 60 17 2.0 5.0 0.00 0.01 0.01 62 1006.3
20260504023926 61 17 2.0 4.0 0.00 0.01 0.01 61 1006.4
20260504023436 61 22 2.0 4.0 0.00 0.01 0.01 61 1006.4
20260504022923 61 19 2.0 5.0 0.00 0.01 0.01 60 1006.3
20260504022430 61 17 2.0 5.0 0.00 0.01 0.01 60 1006.3
20260504021918 61 16 2.0 4.0 0.00 0.01 0.01 60 1006.2
20260504021424 62 17 3.0 8.0 0.00 0.01 0.01 59 1006.1
20260504020959 62 17 4.0 8.0 0.00 0.01 0.01 59 1006.2
20260504020448 62 18 3.0 5.0 0.00 0.01 0.01 59 1006.2
20260504015920 62 18 3.0 5.0 0.00 0.01 0.01 59 1006.0
20260504015428 62 22 3.0 8.0 0.00 0.01 0.01 58 1005.9
20260504014937 62 24 3.0 6.0 0.00 0.01 0.01 58 1006.0
20260504014429 63 24 3.0 5.0 0.00 0.01 0.01 58 1005.9
20260504013919 63 20 3.0 8.0 0.00 0.01 0.01 57 1005.9
20260504013455 63 18 4.0 9.0 0.00 0.01 0.01 57 1005.8
20260504012926 63 23 3.0 8.0 0.00 0.01 0.01 56 1005.9
20260504012415 63 23 3.0 8.0 0.00 0.01 0.01 56 1005.8
20260504011925 64 28 3.0 8.0 0.00 0.01 0.01 56 1005.9
20260504011433 64 24 4.0 9.0 0.00 0.01 0.01 56 1005.8
20260504010940 64 28 3.0 9.0 0.00 0.01 0.01 55 1005.8
20260504010427 64 23 3.0 9.0 0.00 0.01 0.01 55 1005.8
20260504005919 64 26 4.0 6.0 0.00 0.01 0.01 55 1005.8
20260504005429 65 22 4.0 6.0 0.00 0.01 0.01 54 1005.7
20260504004918 65 23 4.0 10.0 0.00 0.01 0.01 54 1005.7
20260504004431 65 19 6.0 11.0 0.00 0.01 0.01 53 1005.8
20260504003942 65 23 6.0 11.0 0.00 0.01 0.01 53 1005.8
20260504003431 66 30 4.0 12.0 0.00 0.01 0.01 53 1005.9
20260504002922 66 33 4.0 12.0 0.00 0.01 0.01 52 1005.8
20260504002431 66 30 6.0 13.0 0.00 0.01 0.01 51 1005.8
20260504001940 66 27 6.0 13.0 0.00 0.01 0.01 51 1005.9
20260504001446 67 34 5.0 13.0 0.00 0.01 0.01 51 1005.9
20260504000915 67 215 5.0 9.0 0.00 0.01 0.01 50 1005.9
20260504000423 67 227 5.0 10.0 0.00 0.01 0.01 50 1005.8
20260503235934 67 231 6.0 10.0 0.00 0.01 0.01 50 1005.8
20260503235423 67 207 4.0 9.0 0.00 0.01 0.01 50 1005.8
20260503234931 68 250 4.0 9.0 0.00 0.01 0.01 49 1005.8
20260503234421 68 212 4.0 11.0 0.00 0.01 0.01 49 1005.9
20260503233930 68 247 5.0 11.0 0.00 0.01 0.01 48 1005.9
20260503233418 68 218 6.0 11.0 0.00 0.01 0.01 48 1005.9
20260503232928 68 209 4.0 14.0 0.00 0.01 0.01 47 1005.8
20260503232417 68 213 6.0 14.0 0.00 0.01 0.01 47 1005.8
20260503231923 68 254 3.0 18.0 0.00 0.01 0.01 48 1005.9
20260503231430 68 249 6.0 18.0 0.00 0.01 0.01 47 1005.8
20260503230938 68 215 5.0 11.0 0.00 0.01 0.01 47 1005.8
20260503230447 68 207 4.0 14.0 0.00 0.01 0.01 47 1005.9
20260503225932 68 246 5.0 14.0 0.00 0.01 0.01 47 1006.0
20260503225420 68 195 7.0 14.0 0.00 0.01 0.01 46 1006.0
20260503224926 68 250 4.0 14.0 0.00 0.01 0.01 47 1006.0
20260503224438 68 215 8.0 14.0 0.00 0.01 0.01 46 1006.0
20260503223948 68 203 8.0 14.0 0.00 0.01 0.01 46 1006.0
20260503223434 68 207 7.0 17.0 0.00 0.01 0.01 47 1006.1
20260503222926 68 238 6.0 17.0 0.00 0.01 0.01 46 1006.1
20260503222415 68 182 8.0 15.0 0.00 0.01 0.01 46 1006.2
20260503221920 68 231 7.0 15.0 0.00 0.01 0.01 46 1006.2
20260503221429 67 216 9.0 15.0 0.00 0.01 0.01 46 1006.3
20260503220934 67 207 6.0 15.0 0.00 0.01 0.01 47 1006.4
20260503220421 66 203 4.0 11.0 0.00 0.01 0.01 48 1006.5
20260503215932 66 204 5.0 14.0 0.00 0.01 0.01 48 1006.4
20260503215420 66 207 6.0 14.0 0.00 0.01 0.01 48 1006.4
20260503214930 65 190 7.0 14.0 0.00 0.01 0.01 48 1006.5
20260503214439 66 203 9.0 15.0 0.00 0.01 0.01 48 1006.5
20260503213945 66 229 7.0 18.0 0.00 0.01 0.01 49 1006.7
20260503213432 66 191 10.0 18.0 0.00 0.01 0.01 46 1006.6
20260503212923 66 206 7.0 21.0 0.00 0.01 0.01 48 1006.9
20260503212429 66 186 10.0 21.0 0.00 0.01 0.01 48 1006.9
20260503211918 65 221 8.0 15.0 0.00 0.01 0.01 47 1007.2
20260503211445 65 190 10.0 15.0 0.00 0.01 0.01 47 1007.2
20260503210929 66 152 8.0 14.0 0.00 0.01 0.01 47 1007.1
20260503210417 65 245 10.0 17.0 0.00 0.01 0.01 47 1007.4
20260503205930 64 218 8.0 17.0 0.00 0.01 0.01 48 1007.4
20260503205419 64 210 9.0 15.0 0.00 0.01 0.01 46 1007.5
20260503204926 64 217 7.0 15.0 0.00 0.01 0.01 46 1007.6
20260503204438 64 171 9.0 17.0 0.00 0.01 0.01 46 1007.7
20260503203944 65 238 10.0 18.0 0.00 0.01 0.01 45 1007.9
20260503203429 66 206 9.0 17.0 0.00 0.01 0.01 45 1007.9
20260503202941 66 195 6.0 21.0 0.00 0.01 0.01 46 1008.0
20260503202455 65 211 11.0 20.0 0.00 0.01 0.01 45 1008.0
20260503202006 65 213 11.0 17.0 0.00 0.01 0.01 44 1008.1
20260503201427 65 213 10.0 18.0 0.00 0.01 0.01 45 1008.2
20260503200936 65 213 12.0 18.0 0.00 0.01 0.01 44 1008.1
20260503200443 65 208 11.0 20.0 0.00 0.01 0.01 47 1008.2
20260503195933 64 47 11.0 25.0 0.00 0.01 0.01 47 1008.1
20260503195420 64 28 12.0 24.0 0.00 0.01 0.01 48 1008.2
20260503194929 64 29 14.0 24.0 0.00 0.01 0.01 47 1008.2
20260503194419 63 28 10.0 24.0 0.00 0.01 0.01 51 1008.2
20260503193926 63 28 13.0 24.0 0.00 0.01 0.01 50 1008.4
20260503193413 62 22 12.0 22.0 0.00 0.01 0.01 51 1008.4
20260503192924 62 29 9.0 18.0 0.00 0.01 0.01 53 1008.5
20260503192429 62 25 9.0 15.0 0.00 0.01 0.01 55 1008.6
20260503191915 61 22 9.0 23.0 0.00 0.01 0.01 56 1008.6
20260503191429 61 19 12.0 23.0 0.00 0.01 0.01 55 1008.8
20260503190939 60 23 14.0 20.0 0.00 0.01 0.01 57 1008.8
20260503190426 60 18 8.0 17.0 0.00 0.01 0.01 63 1009.0
20260503185935 59 16 9.0 17.0 0.00 0.01 0.01 62 1009.0
20260503185442 58 16 10.0 18.0 0.00 0.01 0.01 63 1009.2
20260503184930 58 15 10.0 17.0 0.00 0.01 0.01 64 1009.4
20260503184441 58 15 8.0 19.0 0.00 0.01 0.01 64 1009.5
20260503183928 57 16 11.0 19.0 0.00 0.01 0.01 63 1009.5
20260503183418 57 18 6.0 14.0 0.00 0.01 0.01 68 1009.6
20260503182953 56 20 7.0 14.0 0.00 0.01 0.01 69 1009.7
20260503182441 55 26 7.0 13.0 0.00 0.01 0.01 71 1009.7
20260503181926 54 15 5.0 11.0 0.00 0.01 0.01 74 1009.8
20260503181416 54 16 5.0 9.0 0.01 0.01 0.01 77 1010.0
20260503180923 53 16 5.0 14.0 0.01 0.01 0.01 77 1010.2
20260503180413 52 17 5.0 14.0 0.01 0.01 0.01 78 1010.4
20260503175927 52 17 4.0 8.0 0.01 0.01 0.01 77 1010.6
20260503175436 51 14 5.0 11.0 0.01 0.01 0.01 79 1010.6
20260503174920 51 14 5.0 11.0 0.01 0.01 0.01 79 1010.8
20260503174428 50 15 7.0 11.0 0.01 0.01 0.01 80 1011.1
20260503173916 50 15 5.0 20.0 0.01 0.01 0.01 81 1011.2
20260503173424 50 16 12.0 20.0 0.01 0.01 0.01 80 1011.7
20260503172929 49 15 4.0 9.0 0.01 0.01 0.01 85 1012.0
20260503172414 49 15 5.0 13.0 0.01 0.01 0.01 84 1012.1
20260503171922 49 17 7.0 13.0 0.01 0.01 0.01 84 1012.3
20260503171430 49 17 6.0 13.0 0.00 0.00 0.00 84 1012.6
20260503170919 49 18 7.0 13.0 0.00 0.00 0.00 84 1012.8
20260503170427 49 14 4.0 10.0 0.00 0.00 0.00 85 1012.5
20260503150924 54 15 8.0 12.0 0.00 0.00 0.00 62 1013.8
20260503150430 53 14 4.0 12.0 0.00 0.00 0.00 63 1013.7
20260503130931 49 15 4.0 10.0 0.00 0.00 0.00 64 1014.4
20260503130418 49 16 5.0 10.0 0.00 0.00 0.00 64 1014.5
20260503110442 45 28 3.0 8.0 0.00 0.00 0.00 67 1014.2